[[{"header":{"parameterUnit":"m.s-1","parameterCategory":1,"la1":30.2991,"la2":30.254,"lo1":-89.0895,"lo2":-89.0444,"dy":0.0017,"dx":0.0017,"nx":28,"ny":28,"refTime":"2023-09-20T09:00:00:Z","depth":0,"parameterNumber":2,"parameterNumberName":"U-component_of_WINDS"},"data":[0,0,0,0,0,0,0,0,0,0,0,0,0,0,0,0,0,0,0,0,0,0,0,0,0,0,0,0,0,0,0,0,0,0,0,0,0,0,0,0,0,0,0,0,0,0,0,0,0,0,0,0,0,0,0,0,0,0,-3.6177,-3.6176,0,-3.6061,-3.606,-3.6059,-3.5881,-3.5878,-3.5875,-3.5872,-3.5755,-3.5755,-3.5755,0,0,0,0,0,0,0,0,0,0,0,0,0,-3.6246,-3.6246,-3.6177,-3.6176,-3.6174,-3.6062,-3.606,-3.6058,-3.5882,-3.5878,-3.5874,-3.587,-3.5755,-3.5755,-3.5755,0,0,0,0,0,0,0,0,0,0,0,0,0,-3.6182,-3.6246,-3.6177,-3.6072,-3.6062,-3.6062,-3.606,-3.6058,-3.5883,-3.5878,-3.5873,-3.5869,-3.5755,-3.5755,-3.5755,-3.5848,0,0,-3.5754,-3.5754,0,0,0,0,0,0,0,0,-3.6186,-3.618,-3.6089,-3.608,-3.6068,-3.5981,-3.6041,-3.5988,-3.5884,-3.5951,-3.5872,-3.5866,-3.5834,-3.5827,-3.5816,-3.5843,-3.5838,-3.5754,-3.5754,-3.5754,-3.5754,0,0,0,0,0,0,0,-3.6191,-3.6184,-3.6131,-3.6088,-3.6075,-3.6032,-3.6017,-3.603,-3.5921,-3.5945,-3.5931,-3.592,-3.5827,-3.5817,-3.5812,-3.5836,-3.5754,-3.5754,-3.5754,-3.5753,-3.5934,-3.5938,0,0,0,0,0,0,-3.621,-3.6189,-3.6135,-3.6128,-3.6116,-3.6034,-3.6018,-3.6014,-3.592,-3.5901,-3.5924,-3.5912,-3.5819,-3.5812,-3.5807,-3.5909,-3.5754,-3.5753,-3.5753,-3.5929,-3.5935,-3.594,0,0,0,0,0,0,-3.6213,-3.6207,-3.614,-3.6155,-3.6143,-3.6038,-3.6034,-3.6014,-3.6003,-3.5904,-3.5884,-3.5933,-3.5815,-3.5807,-3.5839,-3.5903,-3.5753,-3.5753,-3.5923,-3.5931,-3.5937,-3.6117,0,0,0,0,0,0,-3.6215,-3.6209,-3.6243,-3.6157,-3.6143,-3.6174,-3.6038,-3.6015,-3.6003,-3.5986,-3.5908,-3.589,-3.5811,-3.584,-3.5839,-3.59,-3.5753,-3.5917,-3.5926,-3.5935,-3.6105,-3.6129,-3.6151,0,0,0,0,0,-3.6218,-3.6299,-3.6246,-3.6241,-3.6183,-3.6178,-3.617,-3.6077,-3.6009,-3.6042,-3.5979,-3.5893,-3.5897,-3.5845,-3.5842,-3.5904,-3.5912,-3.5924,-3.5934,-3.6094,-3.6125,-3.615,0,0,0,0,0,0,-3.6397,-3.6286,-3.6226,-3.6281,-3.624,-3.6148,-3.6187,-3.6112,-3.609,-3.6075,-3.5961,-3.5945,-3.5991,-3.595,-3.5895,-3.599,-3.5891,-3.5902,-3.6014,-3.6042,-3.6064,-3.6073,-3.5753,0,0,0,0,0,-3.6442,-3.6447,-3.635,-3.6408,-3.6391,-3.6294,-3.6288,-3.6219,-3.6173,-3.6155,-3.6094,-3.6052,-3.6044,-3.6041,-3.6028,-3.6098,-3.6078,-3.614,-3.6163,-3.6182,-3.6192,-3.6226,-3.6252,-3.5976,-3.5976,-3.5976,0,0,-3.6537,-3.6477,-3.6487,-3.6442,-3.6403,-3.641,-3.628,-3.6294,-3.6298,-3.6157,-3.6182,-3.6137,-3.6083,-3.6135,-3.6154,-3.6102,-3.6264,-3.6196,-3.6212,-3.6212,-3.624,-3.6266,-3.6289,-3.5984,-3.5982,-3.5981,0,0,-3.6712,-3.6668,-3.671,-3.6674,-3.6615,-3.655,-3.6561,-3.648,-3.6444,-3.6468,-3.6362,-3.6366,-3.6354,-3.632,-3.6301,-3.6464,-3.6384,-3.6464,-3.6583,-3.6617,-3.6639,-3.6657,-3.6715,-3.6737,-3.6475,-3.6475,-3.6475,0,-3.6837,-3.6843,-3.6742,-3.6762,-3.6746,-3.6618,-3.6661,-3.663,-3.6571,-3.6563,-3.6505,-3.6487,-3.6442,-3.6484,-3.6524,-3.6513,-3.6521,-3.6471,-3.6644,-3.6661,-3.6677,-3.6731,-3.6753,-3.6485,-3.6484,-3.6483,-3.6482,0,-3.6999,-3.7006,-3.7048,-3.6993,-3.6981,-3.7013,-3.6917,-3.6917,-3.685,-3.6792,-3.6818,-3.6759,-3.6731,-3.6736,-3.6672,-3.6769,-3.6738,-3.6665,-3.6563,-3.6715,-3.6763,-3.6783,-3.6499,-3.6496,-3.6493,-3.649,0,0,-3.7283,-3.7172,-3.7189,-3.7162,-3.7089,-3.7092,-3.7118,-3.709,-3.7093,-3.7057,-3.7075,-3.7068,-3.6999,-3.6978,-3.6908,-3.6939,-3.7071,-3.686,-3.6857,-3.6901,-3.7173,-3.7228,-3.7254,-3.7017,-3.7021,-3.7023,-3.7177,0,-3.7443,-3.748,-3.739,-3.7449,-3.7453,-3.7333,-3.7355,-3.7313,-3.7259,-3.7255,-3.7195,-3.7191,-3.7101,-3.7087,-3.7112,-3.705,-3.7124,-3.7037,-3.7033,-3.7034,-3.7049,-3.7279,-3.7337,-3.7485,-3.7195,-3.7199,-3.7201,0,-3.7634,-3.7607,-3.7667,-3.7589,-3.7587,-3.7609,-3.7577,-3.7575,-3.7524,-3.7483,-3.746,-3.7378,-3.7398,-3.7302,-3.7327,-3.7271,-3.7264,-3.7233,-3.7237,-3.7231,-3.7126,-3.7279,-3.753,-3.7552,-3.723,-3.7227,-3.7225,0,-3.7833,-3.7812,-3.7845,-3.7826,-3.7737,-3.7755,-3.7719,-3.7663,-3.7653,-3.7625,-3.7616,-3.7592,-3.7578,-3.7561,-3.7475,-3.7413,-3.7511,-3.7407,-3.7476,-3.7479,-3.7501,-3.7501,-3.7754,-3.75,-3.7499,-3.7499,-3.7498,0,-3.802,-3.8061,-3.7933,-3.7953,-3.7996,-3.7892,-3.7938,-3.7889,-3.7841,-3.785,-3.7745,-3.7755,-3.7641,-3.764,-3.7573,-3.7604,-3.7599,-3.7565,-3.7547,-3.7574,-3.7578,-3.7567,-3.7554,-3.7505,-3.7503,-3.7502,-3.7501,0,-3.825,-3.8165,-3.8193,-3.8106,-3.8086,-3.8121,-3.8046,-3.8062,-3.8001,-3.8014,-3.8011,-3.7916,-3.7908,-3.7821,-3.7794,-3.7749,-3.7806,-3.7768,-3.7823,-3.781,-3.7884,-3.7878,-3.8137,-3.8165,-3.7896,-3.7898,-3.79,0,-3.8374,-3.8403,-3.8319,-3.8317,-3.8286,-3.8284,-3.8272,-3.8172,-3.8165,-3.8109,-3.8131,-3.8115,-3.8096,-3.809,-3.8019,-3.7998,-3.7958,-3.8051,-3.7954,-3.7981,-3.7958,-3.7957,-3.7959,-3.8071,-3.8074,-3.8077,-3.8079,0,-3.8603,-3.856,-3.8547,-3.852,-3.8509,-3.8483,-3.845,-3.8455,-3.8344,-3.8341,-3.8332,-3.8318,-3.829,-3.8275,-3.8242,-3.8204,-3.8124,-3.8111,-3.8125,-3.8153,-3.8182,-3.8166,-3.7877,-3.8105,-3.8102,-3.81,-3.8099,-3.8098,-3.8782,-3.8802,-3.8746,-3.8735,-3.87,-3.8672,-3.8682,-3.8623,-3.8613,-3.8582,-3.8524,-3.8524,-3.8472,-3.8419,-3.8388,-3.8386,-3.8338,-3.836,-3.8365,-3.8372,-3.8386,-3.8184,-3.838,-3.8379,-3.8378,-3.8378,-3.8377,0,-3.9005,-3.8963,-3.8955,-3.8912,-3.8904,-3.8829,-3.8789,-3.8787,-3.8787,-3.8746,-3.873,-3.8719,-3.8704,-3.8632,-3.8609,-3.8621,-3.8584,-3.8619,-3.8616,-3.8609,-3.8431,-3.842,-3.8649,-3.8649,-3.8649,-3.8649,-3.8649,-3.8649,-3.912,-3.9149,-3.91,-3.911,-3.9068,-3.9066,-3.905,-3.9023,-3.8989,-3.8982,-3.8969,-3.8922,-3.8868,-3.8841,-3.8823,-3.8802,-3.8799,-3.8846,-3.8813,-3.8648,-3.8621,-3.8596,-3.8585,-3.8846,-3.8846,-3.899,-3.8992,-3.8993]},{"header":{"parameterUnit":"m.s-1","parameterCategory":1,"la1":30.2991,"la2":30.254,"lo1":-89.0895,"lo2":-89.0444,"dy":0.0017,"dx":0.0017,"nx":28,"ny":28,"refTime":"2023-09-20T09:00:00:Z","depth":0,"parameterNumber":3,"parameterNumberName":"V-component_of_WINDS"},"data":[0,0,0,0,0,0,0,0,0,0,0,0,0,0,0,0,0,0,0,0,0,0,0,0,0,0,0,0,0,0,0,0,0,0,0,0,0,0,0,0,0,0,0,0,0,0,0,0,0,0,0,0,0,0,0,0,0,0,0.4039,0.4038,0,0.3928,0.3927,0.3926,0.3832,0.3831,0.383,0.3829,0.3718,0.3716,0.3714,0,0,0,0,0,0,0,0,0,0,0,0,0,0.4173,0.4171,0.4039,0.4038,0.4036,0.3928,0.3927,0.3925,0.3833,0.3831,0.383,0.3829,0.3719,0.3716,0.3714,0,0,0,0,0,0,0,0,0,0,0,0,0,0.4094,0.417,0.4039,0.3977,0.397,0.3929,0.3927,0.3925,0.3833,0.3831,0.383,0.3828,0.3719,0.3716,0.3713,0.3725,0,0,0.3704,0.3703,0,0,0,0,0,0,0,0,0.4098,0.4089,0.3987,0.3981,0.3974,0.3892,0.3933,0.3858,0.3833,0.3885,0.3829,0.3828,0.3777,0.3769,0.3752,0.372,0.3715,0.3704,0.3702,0.3701,0.37,0,0,0,0,0,0,0,0.4104,0.4093,0.3995,0.3986,0.3978,0.3955,0.3942,0.3918,0.3841,0.388,0.3873,0.3861,0.3773,0.3755,0.3749,0.3714,0.3704,0.3701,0.3699,0.3698,0.3686,0.3688,0,0,0,0,0,0,0.4119,0.4098,0.3999,0.3992,0.4033,0.3954,0.394,0.392,0.3841,0.3828,0.3863,0.3857,0.3761,0.3752,0.3745,0.3753,0.3701,0.3698,0.3696,0.3685,0.3687,0.3688,0,0,0,0,0,0,0.4122,0.4111,0.4003,0.4043,0.4028,0.3953,0.3932,0.3919,0.39,0.3828,0.3814,0.3858,0.376,0.3749,0.3731,0.3748,0.3697,0.3694,0.3683,0.3685,0.3687,0.377,0,0,0,0,0,0,0.4126,0.4112,0.4115,0.4044,0.4026,0.3991,0.3933,0.3918,0.3895,0.3887,0.382,0.3807,0.3758,0.3736,0.3728,0.3743,0.3692,0.3681,0.3684,0.3687,0.3766,0.3775,0.3783,0,0,0,0,0,0.4131,0.4144,0.4116,0.4105,0.4028,0.3992,0.3982,0.3923,0.3897,0.39,0.3853,0.381,0.3748,0.3735,0.3725,0.3739,0.368,0.3683,0.3686,0.3762,0.3773,0.3783,0,0,0,0,0,0,0.422,0.4133,0.4102,0.4091,0.4049,0.3976,0.3978,0.3937,0.3903,0.3897,0.3827,0.3813,0.3802,0.3769,0.3756,0.3747,0.3708,0.3709,0.3768,0.3779,0.3787,0.3795,0.3689,0,0,0,0,0,0.4238,0.4215,0.4141,0.4139,0.4119,0.4053,0.4035,0.3993,0.3948,0.393,0.3882,0.384,0.3811,0.3793,0.3762,0.3761,0.3745,0.3766,0.3775,0.3782,0.3784,0.3781,0.3789,0.3699,0.3699,0.3699,0,0,0.4275,0.4225,0.4215,0.4155,0.4118,0.4096,0.4038,0.4018,0.4001,0.3927,0.3906,0.387,0.3819,0.3809,0.3802,0.3781,0.3806,0.3787,0.3793,0.3791,0.3785,0.3794,0.3801,0.3701,0.3701,0.3701,0,0,0.4332,0.4292,0.4285,0.425,0.4194,0.415,0.4149,0.4081,0.4054,0.4033,0.3977,0.3957,0.3908,0.3873,0.385,0.3895,0.3854,0.3887,0.3933,0.393,0.3937,0.3943,0.3959,0.3965,0.389,0.389,0.389,0,0.4385,0.4349,0.4287,0.427,0.4246,0.4178,0.4171,0.414,0.4078,0.4063,0.404,0.3977,0.3938,0.3919,0.393,0.3914,0.391,0.3894,0.3941,0.3946,0.3951,0.3965,0.3972,0.3894,0.3894,0.3893,0.3893,0,0.4418,0.4394,0.4396,0.4337,0.4313,0.4302,0.4239,0.4222,0.4184,0.4142,0.4122,0.4072,0.403,0.4023,0.3985,0.3999,0.3987,0.3954,0.3913,0.3965,0.3977,0.3982,0.3901,0.3899,0.3898,0.3897,0,0,0.4525,0.4433,0.4435,0.4407,0.4342,0.4323,0.4309,0.4267,0.4254,0.4214,0.4201,0.4162,0.413,0.4104,0.4062,0.406,0.4099,0.4026,0.4024,0.4041,0.4111,0.4136,0.4143,0.4072,0.4072,0.4073,0.4115,0,0.4571,0.454,0.4485,0.4472,0.445,0.4386,0.4374,0.4333,0.4294,0.427,0.4228,0.4201,0.4162,0.4145,0.4141,0.4095,0.4112,0.4092,0.4058,0.4058,0.4072,0.4149,0.4176,0.4217,0.4119,0.412,0.4121,0,0.4619,0.4582,0.4568,0.4505,0.4493,0.4483,0.4441,0.4419,0.4372,0.4344,0.4314,0.4269,0.4251,0.4215,0.419,0.4178,0.4161,0.4137,0.4137,0.4131,0.4092,0.4145,0.4229,0.4236,0.4128,0.4127,0.4127,0,0.4698,0.4646,0.463,0.4609,0.4534,0.4529,0.4498,0.4449,0.4428,0.4392,0.4377,0.434,0.4319,0.4292,0.4238,0.4216,0.4219,0.4178,0.4195,0.4196,0.4197,0.4198,0.428,0.4189,0.4189,0.4188,0.4188,0,0.4754,0.4747,0.4664,0.4655,0.4646,0.4583,0.4576,0.454,0.4497,0.448,0.4422,0.4408,0.4337,0.4314,0.4272,0.4258,0.4249,0.4226,0.4215,0.4231,0.4234,0.4218,0.4213,0.419,0.419,0.4189,0.4189,0,0.484,0.4784,0.4763,0.4695,0.4678,0.4674,0.4616,0.4605,0.4563,0.4542,0.4534,0.4469,0.4439,0.4382,0.4337,0.4308,0.4303,0.4284,0.4319,0.4312,0.4332,0.433,0.4406,0.4412,0.4319,0.432,0.432,0,0.4879,0.4872,0.4803,0.4787,0.4759,0.4734,0.4712,0.465,0.463,0.4577,0.4572,0.4538,0.4507,0.4463,0.4412,0.4377,0.4356,0.4385,0.435,0.4366,0.4355,0.4356,0.4355,0.4392,0.4393,0.4395,0.4395,0,0.4953,0.4926,0.4896,0.4858,0.4833,0.48,0.4764,0.4754,0.4684,0.4665,0.4633,0.461,0.4563,0.453,0.4488,0.4457,0.4415,0.4407,0.4409,0.4424,0.4445,0.4433,0.4339,0.4405,0.4404,0.4403,0.4403,0.4403,0.5016,0.5007,0.4958,0.4927,0.4893,0.4861,0.4847,0.4804,0.4777,0.4734,0.47,0.4671,0.4625,0.4564,0.4535,0.4513,0.4492,0.4496,0.4496,0.4498,0.4504,0.4449,0.4505,0.4504,0.4504,0.4504,0.4504,0,0.5086,0.5052,0.5024,0.4975,0.4952,0.4914,0.4873,0.4855,0.4831,0.4791,0.4762,0.4727,0.4694,0.4642,0.4605,0.4597,0.4577,0.459,0.4589,0.4583,0.4524,0.4526,0.4607,0.4607,0.4607,0.4607,0.4607,0.4606,0.512,0.5104,0.5071,0.5038,0.5003,0.4975,0.4954,0.4924,0.4892,0.4855,0.4828,0.4794,0.4749,0.4709,0.4678,0.4663,0.4652,0.4671,0.465,0.4596,0.4587,0.4577,0.4579,0.4669,0.4669,0.471,0.471,0.4711]}]]